COSMOS 1275 DEB, 12670

Orbit data source: Space-Track

COSMOS 1275 DEB, 12670 is space debris in LEO originally from a launch on Thu, 04 Jun 1981 UTC launched from the Plesetsk Missile And Space Complex (PKMTR). Debris objects in space refer to the collection of defunct objects orbiting the Earth. Examples of debris include non-operational satellites, rocket bodies, and fragments generated from explosions, collisions, or faulty payload assembly.

Loading next visibility...
Identifier
12670, 1981-053AA
Orbit
LEO
Country
Flag of CISCIS
Related business
Manufacturer
Unknown
Mission
Spacecraft
Bus & Motor
Unknown
Mass
Unknown
Launch date (UTC)
1981-06-04 (44 years ago)
Launch vehicle
Unknown
Launch site
Plesetsk Missile And Space Complex (PKMTR)
Object type
Payload
Rocket body
Debris
Shape & HBR
Unknown shape, 0.4 m
Radar Cross Section
Medium (>0.1 m² and <1 m²)

Expand to show TLE details & history
Last TLE update: 7 hours ago

TLE from 7 hours ago
0 COSMOS 1275 DEB
1 12670U 81053AA  25289.06466674  .00000644  00000-0  58972-3 0  9996
2 12670  82.9440  27.2715 0055881  34.2894 138.3975 13.80893166220078
Epoch: 2025-10-16T01:33Z
TLE epoch observation values (Epoch: 2025-10-16T01:33:07.206Z)
Latitude
6.76381°
Longitude
158.32494°
Altitude
993.779 km
Speed
7.34 km/s
True Right ascension
13h 45m 44s
True Declination
6° 43' 30"
Sunlit
Object was in daylight at epoch
Visualization orbit readout
Latitude
Unknown
Longitude
Unknown
Altitude
Unknown
Speed
Unknown
Apparent Right ascension
Unknown
Apparent Declination
Unknown
Sunlit
N/A
Visualization observer readout
Local Sidereal Time
03:21:59
Azimuth
Unknown
Elevation
Unknown
Doppler factor
Unknown
Orbital elements
Apogee altitude
998.855 km
Perigee altitude
916.867 km
Semi-major axis
7,335.998 km
Eccentricity
0.00559
Inclination
82.944°
RAAN
27.2715°
Arg. of periapsis
34.2894°
True anomaly
138.82045°
Mean anomaly
138.3975°
Eccentric anomaly
138.6092°
Mean motion
3.45425 °/min
Orbital period
104.22 mins
BSTAR
0.00058972
Loading maneuver chart data...
Computing Atmospheric mass density...
Loading historical data...
Loading historical data...
Loading historical data...
Loading historical data...
Loading historical data...
Loading historical data...
Loading historical data...

Documentation

Showing up to 5 results
|